Time,TemperatureF,DewpointF,PressureIn,WindDirection,WindDirectionDegrees,WindSpeedMPH,WindSpeedGustMPH,Humidity,HourlyPrecipIn,Conditions,Clouds,dailyrainin,SoftwareType,DateUTC
2013-06-08 00:11:00,63.3,63.0,29.99,ESE,121,0.0,0.0,97,0.00,,,0.00,weatherlink.com 1.10,2013-06-08 04:11:00,
2013-06-08 00:26:00,63.6,63.0,29.99,ESE,121,0.0,0.0,98,0.00,,,0.00,weatherlink.com 1.10,2013-06-08 04:26:00,
2013-06-08 00:41:00,63.6,63.0,29.99,ESE,121,0.0,0.0,98,0.00,,,0.00,weatherlink.com 1.10,2013-06-08 04:41:00,
2013-06-08 00:56:00,63.8,63.0,30.00,NW,318,0.0,1.0,98,0.05,,,0.05,weatherlink.com 1.10,2013-06-08 04:56:00,
2013-06-08 01:26:00,63.6,63.0,29.98,NW,319,0.0,0.0,98,0.09,,,0.09,weatherlink.com 1.10,2013-06-08 05:26:00,
2013-06-08 01:41:00,63.6,63.0,29.99,NW,311,0.0,1.0,98,0.11,,,0.11,weatherlink.com 1.10,2013-06-08 05:41:00,
2013-06-08 02:11:00,63.8,63.0,29.99,NNW,327,0.0,0.0,98,0.03,,,0.11,weatherlink.com 1.10,2013-06-08 06:11:00,
2013-06-08 02:26:00,63.7,63.0,29.99,NNW,328,0.0,1.0,98,0.02,,,0.11,weatherlink.com 1.10,2013-06-08 06:26:00,
2013-06-08 02:41:00,63.7,63.0,30.00,WSW,257,0.0,1.0,98,0.00,,,0.11,weatherlink.com 1.10,2013-06-08 06:41:00,
2013-06-08 03:11:00,63.6,63.0,29.99,SE,143,0.0,0.0,98,0.00,,,0.11,weatherlink.com 1.10,2013-06-08 07:11:00,
2013-06-08 03:26:00,63.5,63.0,29.99,SE,143,0.0,0.0,98,0.00,,,0.11,weatherlink.com 1.10,2013-06-08 07:26:00,
2013-06-08 03:41:00,63.5,63.0,29.99,SE,142,0.0,0.0,98,0.00,,,0.11,weatherlink.com 1.10,2013-06-08 07:41:00,
2013-06-08 03:56:00,63.6,63.0,29.99,SE,136,0.0,0.0,98,0.00,,,0.11,weatherlink.com 1.10,2013-06-08 07:56:00,
2013-06-08 04:11:00,63.5,63.0,30.00,SE,136,0.0,0.0,98,0.00,,,0.11,weatherlink.com 1.10,2013-06-08 08:11:00,
2013-06-08 04:26:00,63.3,63.0,30.00,SE,136,0.0,0.0,98,0.00,,,0.11,weatherlink.com 1.10,2013-06-08 08:26:00,
2013-06-08 04:41:00,63.4,63.0,30.01,SE,136,0.0,0.0,98,0.00,,,0.11,weatherlink.com 1.10,2013-06-08 08:41:00,
2013-06-08 04:56:00,63.3,63.0,30.01,SE,136,0.0,0.0,98,0.00,,,0.11,weatherlink.com 1.10,2013-06-08 08:56:00,
2013-06-08 05:11:00,63.3,63.0,30.02,SE,136,0.0,0.0,98,0.00,,,0.11,weatherlink.com 1.10,2013-06-08 09:11:00,
2013-06-08 05:26:00,63.0,63.0,30.02,SE,136,0.0,0.0,98,0.00,,,0.11,weatherlink.com 1.10,2013-06-08 09:26:00,
2013-06-08 05:41:00,62.9,62.0,30.02,SE,136,0.0,0.0,98,0.00,,,0.11,weatherlink.com 1.10,2013-06-08 09:41:00,
2013-06-08 05:56:00,62.9,62.0,30.03,SE,136,0.0,0.0,98,0.00,,,0.11,weatherlink.com 1.10,2013-06-08 09:56:00,
2013-06-08 06:11:00,62.7,62.0,30.03,SE,137,0.0,0.0,98,0.00,,,0.11,weatherlink.com 1.10,2013-06-08 10:11:00,
2013-06-08 06:26:00,62.8,62.0,30.04,SE,136,0.0,0.0,98,0.00,,,0.11,weatherlink.com 1.10,2013-06-08 10:26:00,
2013-06-08 06:41:00,62.9,62.0,30.05,SE,136,0.0,0.0,98,0.00,,,0.11,weatherlink.com 1.10,2013-06-08 10:41:00,
2013-06-08 06:56:00,63.0,63.0,30.05,SE,136,0.0,0.0,98,0.00,,,0.11,weatherlink.com 1.10,2013-06-08 10:56:00,
2013-06-08 07:11:00,63.0,63.0,30.05,SE,134,0.0,1.0,98,0.00,,,0.11,weatherlink.com 1.10,2013-06-08 11:11:00,
2013-06-08 07:26:00,63.0,63.0,30.06,SE,134,0.0,0.0,98,0.00,,,0.11,weatherlink.com 1.10,2013-06-08 11:26:00,
2013-06-08 07:41:00,63.3,63.0,30.06,SE,134,0.0,1.0,98,0.00,,,0.11,weatherlink.com 1.10,2013-06-08 11:41:00,
2013-06-08 07:56:00,63.6,63.0,30.07,SE,134,0.0,1.0,98,0.00,,,0.11,weatherlink.com 1.10,2013-06-08 11:56:00,
2013-06-08 08:11:00,63.9,63.0,30.08,SE,134,0.0,0.0,98,0.00,,,0.11,weatherlink.com 1.10,2013-06-08 12:11:00,
2013-06-08 08:26:00,64.3,63.0,30.08,SE,134,0.0,0.0,96,0.00,,,0.11,weatherlink.com 1.10,2013-06-08 12:26:00,
2013-06-08 08:41:00,65.9,64.0,30.09,ESE,117,0.0,1.0,93,0.00,,,0.11,weatherlink.com 1.10,2013-06-08 12:41:00,
2013-06-08 08:57:00,65.5,64.0,30.09,ENE,68,0.0,1.0,93,0.00,,,0.11,weatherlink.com 1.10,2013-06-08 12:57:00,
2013-06-08 09:12:00,66.7,63.0,30.10,ESE,105,0.0,1.0,89,0.00,,,0.11,weatherlink.com 1.10,2013-06-08 13:12:00,
2013-06-08 09:27:00,67.1,65.0,30.11,East,87,0.0,1.0,92,0.00,,,0.11,weatherlink.com 1.10,2013-06-08 13:27:00,
2013-06-08 09:42:00,68.6,65.0,30.11,East,86,0.0,1.0,87,0.00,,,0.11,weatherlink.com 1.10,2013-06-08 13:42:00,
2013-06-08 09:57:00,69.8,65.0,30.11,ENE,60,2.0,2.0,84,0.00,,,0.11,weatherlink.com 1.10,2013-06-08 13:57:00,
2013-06-08 10:12:00,70.5,64.0,30.12,NE,39,1.0,3.0,80,0.00,,,0.11,weatherlink.com 1.10,2013-06-08 14:12:00,
2013-06-08 10:27:00,72.7,66.0,30.12,NE,51,0.0,2.0,80,0.00,,,0.11,weatherlink.com 1.10,2013-06-08 14:27:00,
2013-06-08 10:42:00,74.6,65.0,30.12,SE,128,2.0,4.0,72,0.00,,,0.11,weatherlink.com 1.10,2013-06-08 14:42:00,
2013-06-08 10:57:00,75.1,69.0,30.12,ENE,65,0.0,2.0,82,0.00,,,0.11,weatherlink.com 1.10,2013-06-08 14:57:00,
2013-06-08 11:12:00,76.1,66.0,30.13,SE,146,3.0,4.0,71,0.00,,,0.11,weatherlink.com 1.10,2013-06-08 15:12:00,
2013-06-08 11:27:00,76.6,65.0,30.13,SW,229,0.0,2.0,67,0.00,,,0.11,weatherlink.com 1.10,2013-06-08 15:27:00,
2013-06-08 11:42:00,76.6,66.0,30.14,NNW,332,0.0,3.0,69,0.00,,,0.11,weatherlink.com 1.10,2013-06-08 15:42:00,
2013-06-08 11:57:00,76.8,65.0,30.14,WNW,288,0.0,2.0,66,0.00,,,0.11,weatherlink.com 1.10,2013-06-08 15:57:00,
2013-06-08 12:12:00,78.2,65.0,30.14,WSW,238,0.0,3.0,63,0.00,,,0.11,weatherlink.com 1.10,2013-06-08 16:12:00,
2013-06-08 12:27:00,78.5,65.0,30.14,WNW,284,0.0,3.0,64,0.00,,,0.11,weatherlink.com 1.10,2013-06-08 16:27:00,
2013-06-08 12:42:00,79.7,63.0,30.14,West,276,0.0,5.0,56,0.00,,,0.11,weatherlink.com 1.10,2013-06-08 16:42:00,
2013-06-08 12:57:00,80.7,64.0,30.14,WNW,293,0.0,5.0,57,0.00,,,0.11,weatherlink.com 1.10,2013-06-08 16:57:00,
2013-06-08 13:12:00,81.2,64.0,30.13,SW,222,1.0,5.0,57,0.00,,,0.11,weatherlink.com 1.10,2013-06-08 17:12:00,
2013-06-08 13:27:00,79.7,62.0,30.13,West,263,0.0,5.0,54,0.00,,,0.11,weatherlink.com 1.10,2013-06-08 17:27:00,
2013-06-08 13:42:00,80.0,61.0,30.12,West,273,0.0,7.0,53,0.00,,,0.11,weatherlink.com 1.10,2013-06-08 17:42:00,
2013-06-08 13:58:00,80.3,64.0,30.13,WSW,257,4.0,4.0,57,0.00,,,0.11,weatherlink.com 1.10,2013-06-08 17:58:00,
2013-06-08 14:12:00,80.9,67.0,30.12,WSW,257,2.0,7.0,62,0.00,,,0.11,weatherlink.com 1.10,2013-06-08 18:12:00,
2013-06-08 14:27:00,80.5,64.0,30.12,WSW,256,1.0,5.0,57,0.00,,,0.11,weatherlink.com 1.10,2013-06-08 18:27:00,
2013-06-08 14:42:00,81.2,63.0,30.12,WNW,293,0.0,3.0,54,0.00,,,0.11,weatherlink.com 1.10,2013-06-08 18:42:00,
2013-06-08 14:57:00,80.3,63.0,30.12,SSW,207,1.0,5.0,55,0.00,,,0.11,weatherlink.com 1.10,2013-06-08 18:57:00,
2013-06-08 15:12:00,79.7,64.0,30.12,West,265,0.0,5.0,59,0.00,,,0.11,weatherlink.com 1.10,2013-06-08 19:12:00,
2013-06-08 15:27:00,79.0,66.0,30.12,West,269,4.0,5.0,64,0.00,,,0.11,weatherlink.com 1.10,2013-06-08 19:27:00,
2013-06-08 15:42:00,79.6,65.0,30.13,WNW,300,1.0,5.0,62,0.00,,,0.11,weatherlink.com 1.10,2013-06-08 19:42:00,
2013-06-08 15:57:00,78.4,66.0,30.12,NNW,335,2.0,5.0,66,0.00,,,0.11,weatherlink.com 1.10,2013-06-08 19:57:00,
2013-06-08 16:12:00,77.5,65.0,30.13,SSW,208,1.0,5.0,66,0.00,,,0.11,weatherlink.com 1.10,2013-06-08 20:12:00,
2013-06-08 16:27:00,78.2,66.0,30.13,West,275,2.0,5.0,66,0.00,,,0.11,weatherlink.com 1.10,2013-06-08 20:27:00,
2013-06-08 16:43:00,76.8,65.0,30.13,West,277,1.0,5.0,66,0.00,,,0.11,weatherlink.com 1.10,2013-06-08 20:43:00,
2013-06-08 16:57:00,78.0,67.0,30.14,WNW,289,1.0,4.0,68,0.00,,,0.11,weatherlink.com 1.10,2013-06-08 20:57:00,
2013-06-08 17:12:00,78.4,66.0,30.14,WSW,250,4.0,8.0,65,0.00,,,0.11,weatherlink.com 1.10,2013-06-08 21:12:00,
2013-06-08 17:28:00,77.7,66.0,30.14,WNW,288,2.0,5.0,67,0.00,,,0.11,weatherlink.com 1.10,2013-06-08 21:28:00,
2013-06-08 17:43:00,76.3,66.0,30.14,WNW,298,4.0,6.0,70,0.00,,,0.11,weatherlink.com 1.10,2013-06-08 21:43:00,
2013-06-08 17:58:00,76.2,66.0,30.14,WNW,287,4.0,6.0,71,0.00,,,0.11,weatherlink.com 1.10,2013-06-08 21:58:00,
2013-06-08 18:13:00,75.7,66.0,30.14,SW,233,0.0,5.0,72,0.00,,,0.11,weatherlink.com 1.10,2013-06-08 22:13:00,
2013-06-08 18:28:00,75.2,66.0,30.14,WNW,284,1.0,4.0,73,0.00,,,0.11,weatherlink.com 1.10,2013-06-08 22:28:00,
2013-06-08 18:43:00,74.8,66.0,30.14,WNW,300,1.0,5.0,74,0.00,,,0.11,weatherlink.com 1.10,2013-06-08 22:43:00,
2013-06-08 18:58:00,74.4,66.0,30.14,WSW,243,0.0,4.0,74,0.00,,,0.11,weatherlink.com 1.10,2013-06-08 22:58:00,
2013-06-08 19:13:00,74.1,66.0,30.15,NNW,337,0.0,3.0,75,0.00,,,0.11,weatherlink.com 1.10,2013-06-08 23:13:00,
2013-06-08 19:28:00,74.2,66.0,30.16,WNW,301,0.0,3.0,76,0.00,,,0.11,weatherlink.com 1.10,2013-06-08 23:28:00,
2013-06-08 19:43:00,73.5,66.0,30.17,WNW,284,1.0,3.0,77,0.00,,,0.11,weatherlink.com 1.10,2013-06-08 23:43:00,
2013-06-08 19:58:00,72.9,66.0,30.17,WSW,248,0.0,-999.0,79,-99.99,,,0.11,weatherlink.com 1.10,2013-06-08 23:58:00,
2013-06-08 20:13:00,72.5,66.0,30.18,NW,307,0.0,1.0,80,0.00,,,0.11,weatherlink.com 1.10,2013-06-09 00:13:00,
2013-06-08 20:28:00,71.9,66.0,30.18,WSW,248,0.0,1.0,81,0.00,,,0.11,weatherlink.com 1.10,2013-06-09 00:28:00,
2013-06-08 20:43:00,71.2,66.0,30.19,WSW,257,0.0,1.0,83,0.00,,,0.11,weatherlink.com 1.10,2013-06-09 00:43:00,
2013-06-08 20:58:00,71.1,66.0,30.20,WSW,257,0.0,0.0,84,0.00,,,0.11,weatherlink.com 1.10,2013-06-09 00:58:00,
2013-06-08 21:13:00,70.8,66.0,30.20,WSW,257,0.0,0.0,85,0.00,,,0.11,weatherlink.com 1.10,2013-06-09 01:13:00,
2013-06-08 21:28:00,70.2,66.0,30.20,WSW,257,0.0,1.0,87,0.00,,,0.11,weatherlink.com 1.10,2013-06-09 01:28:00,
2013-06-08 21:43:00,69.5,66.0,30.21,WSW,257,0.0,0.0,89,0.00,,,0.11,weatherlink.com 1.10,2013-06-09 01:43:00,
2013-06-08 21:58:00,68.7,66.0,30.22,WSW,257,0.0,0.0,90,0.00,,,0.11,weatherlink.com 1.10,2013-06-09 01:58:00,
2013-06-08 22:13:00,68.5,66.0,30.23,WSW,257,0.0,0.0,92,0.00,,,0.11,weatherlink.com 1.10,2013-06-09 02:13:00,
2013-06-08 22:28:00,69.1,66.0,30.23,WSW,249,0.0,1.0,90,0.00,,,0.11,weatherlink.com 1.10,2013-06-09 02:28:00,
2013-06-08 22:43:00,69.5,66.0,30.24,WNW,290,0.0,1.0,88,0.00,,,0.11,weatherlink.com 1.10,2013-06-09 02:43:00,
2013-06-08 22:58:00,69.2,66.0,30.24,WSW,245,0.0,1.0,89,0.00,,,0.11,weatherlink.com 1.10,2013-06-09 02:58:00,
2013-06-08 23:13:00,68.8,66.0,30.24,West,264,0.0,1.0,90,0.00,,,0.11,weatherlink.com 1.10,2013-06-09 03:13:00,
2013-06-08 23:43:00,67.7,65.0,30.24,SSW,205,0.0,0.0,92,0.00,,,0.11,weatherlink.com 1.10,2013-06-09 03:43:00,
2013-06-08 23:58:00,67.2,65.0,30.24,SW,231,0.0,1.0,93,0.00,,,0.11,weatherlink.com 1.10,2013-06-09 03:58:00,